Погода в Досанге

Погода в Досанге : погода сейчас, прогноз погоды и архив. Всё, что Вы хотите узнать о погоде в Досанге!

Хотите узнать прогноз погоды в Досанге? Тогда Вам сюда: Погода в Досанге

Поиск расширенной информации на нашем сайте:

Другие новости

Новости СМИ2

Главная страница сайта

Новости сайта

03.07.2017

Напоминаем, что на нашем специализированном сайте Метеоцентр.Азия вы можете получить высокодетализированные автоматические прогнозы погоды по пунктам России, СНГ и мира в авиационном формате (включающие направление и скорость ветра, видимость, явления погоды, количество и форму облачности, нижнюю и верхнюю границу облачности).


Погода в Досанге - сегодня

Время (UTC), дата Ветер
(°,м/с) 
Видим.   Явления Облачность Т
(°С)
Тd
(°С)
f(%) Тe
(°С)
Pmin
(гПа)
dP
(гПа)
Po
(мм)
O2
(г/м3)
Тmin Tmax R s Состояние
почвы
06 15.06.18 140 (ЮВ) 7-11{11}  20000 м    ясно 
+29.7 +5.6 22 +30  1011.6  760  275           
09 15.06.18 160 (Ю) 5{13}  20000 м    ясно 
+31.3 +2.8 16 +31  1010.7  -1  760  274           
12 15.06.18 170 (Ю) 5{11}  20000 м    ясно 
+31.4 +6.3 21 +31  1010  -0.6  759  273           
15 15.06.18 170 (Ю) 20000 м    ясно 
+29.4 +11.2 32 +32  1009.8  -0.3  759  274    +32.3       
18 15.06.18 120 (ЮВ) 10 км    ясно 
+22.7 +10.1 45 +24  1010.7  760  281           
21 15.06.18 140 (ЮВ) 10 км    ясно 
+18.7 +10.4 58 +21  1009.7  -1  759  284           
00 16.06.18 070 (В) 10 км    ясно 
+14 +10.4 79 +16  1009.3  -0.4  759  289           
06 16.06.18 040 (СВ) 20000 м    3/0 средняя, верхняя 
[Ac cast|Ci fib]
+30.7 +3.1 17 +31  1010.1  0.1  759  275           
09 16.06.18 300 (СЗ) 20000 м    9/3 600 м верхняя 
[Cu hum|Ci fib]
+33 +2.1 14 +33  1009  -1.1  758  272           
12 16.06.18 030 (СВ) 20000 м    10/0 верхняя 
[Cs]
+34.2 +1.1 12 +34  1008.1  -0.9  758  271           
15 16.06.18 010 (С) 8-15  20000 м    3/0 верхняя 
[Ci fib]
+32.9 +4.2 16 +33  1007.4  -0.7  757  272    +34.8       
18 16.06.18 030 (СВ) 5{15}  10 км    ясно 
+25.6 +4.3 25 +26  1010.7  3.4  760  279           
21 16.06.18 020 (С) 5{11}  10 км    ясно 
+21.8 +0.3 24 +22  1011.1  0.4  760  284           
00 17.06.18 030 (СВ) 5{12}  10 км    ясно 
+18 -1.2 27 +18  1012.1  761  288           
03 17.06.18 030 (СВ) 6{10}  20000 м    ясно 
+18.7 -0.8 27 +19  1012.3  0.3  761  287  +16.6        сухая 
06 17.06.18 050 (СВ) 6-11{11}  20000 м    ясно 
+24.1 -0.2 20 +24  1012.1  -0.3  761  282           
09 17.06.18 060 (СВ) 6{11}  20000 м    ясно 
+27.5 -3.6 13 +28  1011.6  -0.6  760  279           
12 17.06.18 020 (С) 6-15{15}  20000 м    ясно 
+29.2 -3.7 11 +29  1010.4  -1.2  759  277           
15 17.06.18 030 (СВ) 5{15}  20000 м    3/0 верхняя 
[Ci fib]
+28.5 -3.4 12 +29  1009.8  -0.5  759  277    +29.3       
18 17.06.18 010 (С) 10 км    1/0 верхняя 
[Ci fib]
+21.1 -3.7 19 +21  1011.2  1.4  760  285           
21 17.06.18 020 (С) 10 км    ясно 
+17.2 -3 25 +18  1010.9  -0.2  760  288           
00 18.06.18 030 (СВ) 10 км    ясно 
+14.5 -2.2 31 +15  1011.1  0.2  760  291           
03 18.06.18 080 (В) 20000 м    1/0 верхняя 
[Ci fib]
+20.2 +0.9 28 +20  1011.4  0.2  760  285  +12.8        сухая 
06 18.06.18 080 (В) 20000 м    1/0 верхняя 
[Ci sp]
+27.2 +0.5 18 +27  1011.1  -0.3  760  278           
09 18.06.18 340 (С) 20000 м    3/0 верхняя 
[Ci fib]
+28.9 -1.5 14 +29  1010.4  -0.7  759  277           
Время (UTC), дата Ветер
(°,м/с) 
Видим.   Явления Облачность Т
(°С)
Тd
(°С)
f(%) Тe
(°С)
Pmin
(гПа)
dP
(гПа)
Po
(мм)
O2
(г/м3)
Тmin Tmax R s Состояние
почвы

Для получения пояснительной информации подведите курсор к названию столбца.

ПОГОДА в Досанге - архив

Всё, что Вы хотите узнать о погоде в Досанге - удобно и подробно!

Выберите нужную дату (начиная с 1 января 2015* года) и нажмите кнопку "Найти".
Будут отображены архивные сводки погоды по пункту Досанг, начиная с указанной даты.


Отображать данные в формате CSV (для использования в таблицах Excel)


Внимание! Наш архив погоды предназначен исключительно для личного некоммерческого использования в познавательных целях. Если Вам необходимы официальные справки о состоянии погоды (для производственных, юридических, коммерческих и т.п. целей), обращайтесь в органы Росгидромета.

*Примечание: данная дата относится к архиву по метеостанциям СССР (Россия, СНГ, Балтия).
Архив по метеостанциям Зарубежной Европы и Азии (кроме Китая) хранится 10 дней, по другим регионам земного шара (Китай, Африка, Америка, Австралия, Океания) - 1 день.

Досанг - район местоположения метеостанции


Название, широта, долгота, высота метеостанции:
Досанг 46.9°ш. 47.9°д. -19 м над ур. моря [Российская Федерация]

Дополнительная информация

В oтличие oт бoльшинства пoгoдных сайтoв мы публикуем пoдрoбную метеoинфoрмацию в детальнoм прoфессиoнальнoм фoрмате.

Характеристики температуры и влажнoсти вoздуха измеряются на высoте 2 м в тени вдали oт зданий и деревьев.
Скoрoсть ветра измеряется на высoте 10 м (на урoвне рoста челoвека скoрoсть ветра ниже в 1.5-2 раза). Если метеoстанция нахoдится в гoрoде или в лесу, тo скoрoсть ветра занижена на 2-4 м/с пo сравнению с oткрытым местoм. Скoрoсть ветра над акватoриями крупных рек и oзёр, а также на вершинах хoлмoв на 2-5 м/с выше, чем в oбычных услoвиях.
Атмoсфернoе давление в разных тoчках местнoсти мoжет значительнo oтличаться oт давления на метеoстанции, в зависимoсти oт услoвий рельефа (при пoдъёме на 10 м давление пoнижается примернo на 1 мм рт.ст.).